Location: Hickory_CSC
(35.7330°N, 81.3330°W)
Time: 15:17:17
(UTC-04:00)

Cosmos 1356 Rocket - Visible Passes

Search period start: 28 June 2017 00:00
Search period end: 08 July 2017 00:00
Orbit: 545 x 599 km, 81.2° (Epoch: 27 June)

Date Brightness Start Highest point End Pass type
(mag) Time Alt. Az. Time Alt. Az. Time Alt. Az.
28 Jun 5.9 22:38:05 10° SW 22:41:22 22° WNW 22:44:43 10° NNW visible
29 Jun 6.3 22:41:20 10° WSW 22:44:03 16° WNW 22:46:47 10° NNW visible
30 Jun 6.5 22:44:56 10° W 22:46:44 12° WNW 22:48:31 10° NW visible
02 Jul 3.5 21:10:16 10° S 21:14:32 87° E 21:18:52 10° N visible
03 Jul 3.9 21:12:52 10° SSW 21:17:07 69° W 21:21:25 10° N visible
04 Jul 4.6 21:15:34 10° SSW 21:19:42 49° W 21:23:54 10° N visible
05 Jul 5.3 21:18:21 10° SW 21:22:19 36° WNW 21:26:19 10° N visible
06 Jul 5.9 21:21:17 10° SW 21:24:57 27° WNW 21:28:39 10° NNW visible
07 Jul 6.4 21:24:21 10° WSW 21:27:36 21° WNW 21:30:52 10° NNW visible
